Weather History for Tehachapi, CA

Change the Weather History Date:

Wednesday, December 1, 2010

  Actual Average Record
Temperature  
Mean Temperature 40 °F -  
Max Temperature 53 °F 53 °F 62 °F (2013)
Min Temperature 28 °F 31 °F 28 °F (2011)
Degree Days  
Heating Degree Days 24    
Moisture  
Dew Point 12 °F    
Average Humidity 32    
Maximum Humidity 55    
Minimum Humidity 20    
Precipitation  
Precipitation 0.00 in - - ()
Sea Level Pressure  
Sea Level Pressure 30.21 in    
Wind  
Wind Speed 9 mph ()    
Max Wind Speed 14 mph    
Max Gust Speed 17 mph    
Visibility 9.8 miles    
Events      
Averages and records for this station are not official NWS values.
T = Trace of Precipitation, MM = Missing Value Source: Averaged Metar Reports

Daily Weather History Graph

Daily Weather History Graph

Search for Another Location

Airport:

Trip Planner

Search our weather history database for the weather conditions in past years. The results will help you decide how hot, cold, wet, or windy it might be!

Date:

Astronomy

Dec. 01, 2010 Rise Set
Actual Time 6:43 AM PST 4:41 PM PST
Civil Twilight 6:16 AM PST 5:09 PM PST
Nautical Twilight 5:44 AM PST 5:40 PM PST
Astronomical Twilight 5:14 AM PST 6:11 PM PST
Moon 2:22 AM PST (12/1) 1:40 PM PST (12/1)
Length of Visible Light 10h 53m
Length of Day
9h 57m
Waning Crescent, 18% of the Moon is Illuminated
Dec 1
Waning Crescent
Dec 5
New
Dec 13
First Quarter
Dec 21
Full
Dec 27
Last Quarter

Hourly Weather History & Observations

Time (PST) Temp. Windchill Dew Point Humidity Pressure Visibility Wind Dir Wind Speed Gust Speed Precip Events Conditions
12:35 AM 41.0 °F 34.3 °F 5.0 °F 23% 30.29 in 10.0 mi East 11.5 mph 17.3 mph N/A   Clear
12:55 AM 41.0 °F 33.9 °F 5.0 °F 23% 30.29 in 10.0 mi East 12.7 mph - N/A   Clear
1:15 AM 41.0 °F 35.2 °F 5.0 °F 23% 30.29 in 10.0 mi East 9.2 mph - N/A   Clear
1:35 AM 39.2 °F 32.5 °F 5.0 °F 24% 30.28 in 10.0 mi ESE 10.4 mph - N/A   Clear
2:15 AM 37.4 °F 31.4 °F 8.6 °F 30% 30.27 in 10.0 mi ESE 8.1 mph - N/A   Clear
2:35 AM 39.2 °F 32.5 °F 3.2 °F 22% 30.27 in 10.0 mi East 10.4 mph - N/A   Clear
2:55 AM 39.2 °F 32.0 °F 5.0 °F 24% 30.26 in 10.0 mi East 11.5 mph - N/A   Clear
3:35 AM 35.6 °F 28.6 °F 6.8 °F 30% 30.26 in 10.0 mi SE 9.2 mph - N/A   Clear
3:55 AM 35.6 °F 28.6 °F 5.0 °F 28% 30.26 in 10.0 mi East 9.2 mph - N/A   Clear
4:15 AM 32.0 °F 25.6 °F 10.4 °F 41% 30.26 in 10.0 mi SE 6.9 mph - N/A   Clear
4:35 AM 32.0 °F 26.4 °F 10.4 °F 41% 30.26 in 10.0 mi SE 5.8 mph - N/A   Clear
4:55 AM 32.0 °F 27.5 °F 12.2 °F 44% 30.26 in 10.0 mi East 4.6 mph - N/A   Clear
5:15 AM 30.2 °F 25.4 °F 14.0 °F 51% 30.25 in 10.0 mi East 4.6 mph - N/A   Clear
5:35 AM 28.4 °F 20.4 °F 14.0 °F 55% 30.25 in 10.0 mi SE 8.1 mph - N/A   Clear
6:15 AM 28.4 °F 21.2 °F 12.2 °F 51% 30.25 in 10.0 mi ESE 6.9 mph - N/A   Clear
6:35 AM 30.2 °F 22.6 °F 14.0 °F 51% 30.26 in 10.0 mi ESE 8.1 mph - N/A   Clear
6:55 AM 32.0 °F 23.6 °F 10.4 °F 41% 30.26 in 10.0 mi ESE 10.4 mph - N/A   Clear
7:15 AM 32.0 °F 23.6 °F 10.4 °F 41% 30.25 in 10.0 mi ESE 10.4 mph - N/A   Clear
7:35 AM 35.6 °F 27.5 °F 8.6 °F 33% 30.26 in 10.0 mi East 11.5 mph - N/A   Clear
8:15 AM 41.0 °F 35.2 °F 5.0 °F 23% 30.27 in 10.0 mi East 9.2 mph - N/A   Clear
8:35 AM 42.8 °F 37.5 °F 6.8 °F 23% 30.27 in 10.0 mi ESE 9.2 mph - N/A   Clear
8:55 AM 44.6 °F 38.8 °F 6.8 °F 21% 30.26 in 10.0 mi ESE 11.5 mph - N/A   Clear
9:15 AM 44.6 °F 38.8 °F 6.8 °F 21% 30.26 in 10.0 mi ESE 11.5 mph - N/A   Clear
9:35 AM 46.4 °F 40.7 °F 6.8 °F 20% 30.26 in 10.0 mi ESE 12.7 mph - N/A   Clear
9:55 AM 48.2 °F - 8.6 °F 20% 30.25 in 10.0 mi East 10.4 mph - N/A   Clear
10:15 AM 48.2 °F - 10.4 °F 22% 30.25 in 10.0 mi East 13.8 mph - N/A   Clear
10:35 AM 48.2 °F - 10.4 °F 22% 30.24 in 10.0 mi ESE 13.8 mph - N/A   Clear
10:55 AM 48.2 °F - 14.0 °F 25% 30.24 in 10.0 mi East 13.8 mph - N/A   Clear
11:15 AM 50.0 °F - 14.0 °F 24% 30.23 in 10.0 mi East 11.5 mph - N/A   Clear
11:35 AM 50.0 °F - 12.2 °F 22% 30.22 in 9.0 mi ESE 11.5 mph - N/A   Clear
11:55 AM 50.0 °F - 14.0 °F 24% 30.21 in 9.0 mi East 12.7 mph - N/A   Clear
12:15 PM 51.8 °F - 14.0 °F 22% 30.20 in 10.0 mi East 10.4 mph - N/A   Clear
12:35 PM 51.8 °F - 14.0 °F 22% 30.20 in 9.0 mi ESE 12.7 mph - N/A   Clear
1:15 PM 51.8 °F - 15.8 °F 24% 30.18 in 9.0 mi East 11.5 mph - N/A   Clear
1:35 PM 51.8 °F - 14.0 °F 22% 30.18 in 9.0 mi East 9.2 mph - N/A   Clear
1:55 PM 51.8 °F - 14.0 °F 22% 30.17 in 10.0 mi ESE 9.2 mph - N/A   Clear
2:15 PM 53.6 °F - 15.8 °F 22% 30.16 in 9.0 mi ESE 11.5 mph - N/A   Clear
2:35 PM 53.6 °F - 17.6 °F 24% 30.16 in 10.0 mi East 10.4 mph - N/A   Clear
2:55 PM 51.8 °F - 17.6 °F 26% 30.16 in 10.0 mi ESE 10.4 mph - N/A   Clear
3:15 PM 50.0 °F - 17.6 °F 28% 30.16 in 9.0 mi East 11.5 mph - N/A   Clear
3:35 PM 50.0 °F - 15.8 °F 26% 30.16 in 8.0 mi East 10.4 mph - N/A   Clear
3:55 PM 48.2 °F - 15.8 °F 27% 30.16 in 9.0 mi ESE 11.5 mph - N/A   Clear
4:15 PM 46.4 °F 41.5 °F 14.0 °F 27% 30.16 in 10.0 mi ESE 10.4 mph - N/A   Clear
4:35 PM 44.6 °F 39.2 °F 14.0 °F 29% 30.15 in 10.0 mi ESE 10.4 mph - N/A   Clear
4:55 PM 42.8 °F 36.6 °F 14.0 °F 31% 30.16 in 10.0 mi ESE 11.5 mph - N/A   Clear
5:15 PM 41.0 °F 35.8 °F 14.0 °F 33% 30.16 in 10.0 mi ESE 8.1 mph - N/A   Clear
5:35 PM 41.0 °F 35.2 °F 14.0 °F 33% 30.15 in 10.0 mi ESE 9.2 mph - N/A   Clear
5:55 PM 39.2 °F 34.2 °F 14.0 °F 36% 30.16 in 10.0 mi ESE 6.9 mph - N/A   Clear
6:15 PM 39.2 °F 32.5 °F 15.8 °F 39% 30.16 in 10.0 mi SE 10.4 mph - N/A   Clear
6:35 PM 39.2 °F 33.0 °F 14.0 °F 36% 30.16 in 10.0 mi SE 9.2 mph - N/A   Clear
6:55 PM 37.4 °F 30.3 °F 17.6 °F 45% 30.16 in 10.0 mi SE 10.4 mph - N/A   Clear
7:15 PM 37.4 °F 29.8 °F 17.6 °F 45% 30.15 in 10.0 mi ESE 11.5 mph - N/A   Clear
7:35 PM 37.4 °F 29.8 °F 17.6 °F 45% 30.16 in 10.0 mi ESE 11.5 mph - N/A   Clear
7:55 PM 37.4 °F 30.8 °F 17.6 °F 45% 30.16 in 10.0 mi ESE 9.2 mph - N/A   Clear
8:15 PM 42.8 °F 37.5 °F 10.4 °F 27% 30.16 in 10.0 mi ESE 9.2 mph - N/A   Clear
8:35 PM 39.2 °F 33.0 °F 15.8 °F 39% 30.16 in 10.0 mi SE 9.2 mph - N/A   Clear
8:55 PM 37.4 °F 30.3 °F 17.6 °F 45% 30.16 in 10.0 mi ESE 10.4 mph - N/A   Clear
9:15 PM 37.4 °F 31.4 °F 17.6 °F 45% 30.16 in 10.0 mi SE 8.1 mph - N/A   Clear
9:35 PM 35.6 °F 29.9 °F 15.8 °F 44% 30.17 in 10.0 mi SSE 6.9 mph - N/A   Clear
9:55 PM 37.4 °F 30.8 °F 15.8 °F 41% 30.17 in 10.0 mi ESE 9.2 mph - N/A   Clear
10:15 PM 39.2 °F 32.5 °F 12.2 °F 33% 30.16 in 10.0 mi ESE 10.4 mph - N/A   Clear
10:35 PM 35.6 °F 28.6 °F 17.6 °F 48% 30.16 in 10.0 mi SE 9.2 mph - N/A   Clear
10:55 PM 37.4 °F 29.8 °F 15.8 °F 41% 30.17 in 10.0 mi ESE 11.5 mph - N/A   Clear
11:15 PM 37.4 °F 30.8 °F 14.0 °F 38% 30.16 in 10.0 mi SE 9.2 mph - N/A   Clear
11:35 PM 37.4 °F 30.3 °F 14.0 °F 38% 30.16 in 10.0 mi ESE 10.4 mph - N/A   Clear
11:55 PM 35.6 °F 27.5 °F 17.6 °F 48% 30.15 in 10.0 mi SE 11.5 mph - N/A   Clear